Time,TemperatureF,DewpointF,PressureIn,WindDirection,WindDirectionDegrees,WindSpeedMPH,WindSpeedGustMPH,Humidity,HourlyPrecipIn,Conditions,Clouds,dailyrainin,SoftwareType,DateUTC
2013-08-28 00:00:00,83.3,78.0,29.93,ESE,108,3.0,8.0,84,0.00,CLR,,0.00,WeatherDisplay:10.37,2013-08-28 06:00:00,
2013-08-28 00:15:00,83.2,77.5,29.93,East,96,5.0,9.0,83,0.00,CLR,,0.00,WeatherDisplay:10.37,2013-08-28 06:15:00,
2013-08-28 00:30:00,83.2,77.9,29.93,ESE,104,2.0,8.0,84,0.00,CLR,,0.00,WeatherDisplay:10.37,2013-08-28 06:30:00,
2013-08-28 00:45:00,83.3,78.0,29.93,ESE,106,5.0,9.0,84,0.00,CLR,,0.00,WeatherDisplay:10.37,2013-08-28 06:45:00,
2013-08-28 01:00:00,83.6,77.5,29.92,ESE,117,8.0,10.0,82,0.00,CLR,,0.00,WeatherDisplay:10.37,2013-08-28 07:00:00,
2013-08-28 01:15:00,83.7,77.2,29.92,ESE,117,6.0,10.0,81,0.00,CLR,,0.00,WeatherDisplay:10.37,2013-08-28 07:15:00,
2013-08-28 01:30:00,83.8,77.7,29.92,ESE,112,8.0,10.0,82,0.00,CLR,,0.00,WeatherDisplay:10.37,2013-08-28 07:30:00,
2013-08-28 01:45:00,83.6,77.9,29.92,ESE,116,6.0,10.0,83,0.00,CLR,,0.00,WeatherDisplay:10.37,2013-08-28 07:45:00,
2013-08-28 02:00:00,83.6,78.2,29.92,ESE,118,6.0,10.0,84,0.00,CLR,,0.00,WeatherDisplay:10.37,2013-08-28 08:00:00,
2013-08-28 02:15:00,83.5,78.2,29.92,ESE,119,5.0,12.0,84,0.00,CLR,,0.00,WeatherDisplay:10.37,2013-08-28 08:15:00,
2013-08-28 02:30:00,83.4,78.1,29.92,ESE,118,6.0,9.0,84,0.00,CLR,,0.00,WeatherDisplay:10.37,2013-08-28 08:30:00,
2013-08-28 02:45:00,83.4,77.7,29.92,ESE,115,7.0,10.0,83,0.00,CLR,,0.00,WeatherDisplay:10.37,2013-08-28 08:45:00,
2013-08-28 03:00:00,83.5,77.8,29.91,ESE,115,6.0,10.0,83,0.00,CLR,,0.00,WeatherDisplay:10.37,2013-08-28 09:00:00,
2013-08-28 03:15:00,83.4,77.7,29.91,ESE,117,9.0,12.0,83,0.00,CLR,,0.00,WeatherDisplay:10.37,2013-08-28 09:15:00,
2013-08-28 03:30:00,83.4,78.0,29.90,ESE,117,5.0,12.0,84,0.00,CLR,,0.00,WeatherDisplay:10.37,2013-08-28 09:30:00,
2013-08-28 03:45:00,83.4,78.1,29.90,ESE,117,7.0,10.0,84,0.00,CLR,,0.00,WeatherDisplay:10.37,2013-08-28 09:45:00,
2013-08-28 04:00:00,80.2,73.8,29.91,ESE,105,5.0,23.0,81,0.01,RA,,0.01,WeatherDisplay:10.37,2013-08-28 10:00:00,
2013-08-28 04:15:00,78.1,73.6,29.91,NE,56,1.0,5.0,86,0.04,CLR,,0.05,WeatherDisplay:10.37,2013-08-28 10:15:00,
2013-08-28 04:30:00,78.4,75.2,29.91,East,96,1.0,7.0,90,0.00,CLR,,0.05,WeatherDisplay:10.37,2013-08-28 10:30:00,
2013-08-28 04:45:00,79.4,75.8,29.92,SE,128,20.0,33.0,89,0.00,CLR,,0.05,WeatherDisplay:10.37,2013-08-28 10:45:00,
2013-08-28 05:00:00,78.3,74.8,29.92,SSE,152,17.0,28.0,89,0.00,CLR,,0.05,WeatherDisplay:10.37,2013-08-28 11:00:00,
2013-08-28 05:15:00,79.1,74.2,29.91,SE,142,5.0,18.0,85,0.00,CLR,,0.05,WeatherDisplay:10.37,2013-08-28 11:15:00,
2013-08-28 05:30:00,79.6,74.3,29.90,SE,128,3.0,10.0,84,0.00,CLR,,0.05,WeatherDisplay:10.37,2013-08-28 11:30:00,
2013-08-28 05:45:00,79.6,74.0,29.91,SSE,154,2.0,8.0,83,0.00,CLR,,0.05,WeatherDisplay:10.37,2013-08-28 11:45:00,
2013-08-28 06:00:00,79.9,73.9,29.91,SSE,161,1.0,8.0,82,0.00,CLR,,0.05,WeatherDisplay:10.37,2013-08-28 12:00:00,
2013-08-28 06:15:00,79.8,73.8,29.91,South,186,0.0,2.0,82,0.00,CLR,,0.05,WeatherDisplay:10.37,2013-08-28 12:15:00,
2013-08-28 06:30:00,80.1,74.1,29.93,South,186,0.0,0.0,82,0.00,CLR,,0.05,WeatherDisplay:10.37,2013-08-28 12:30:00,
2013-08-28 06:45:00,81.0,74.6,29.93,South,186,0.0,0.0,81,0.00,CLR,,0.05,WeatherDisplay:10.37,2013-08-28 12:45:00,
2013-08-28 07:00:00,81.8,75.0,29.93,South,185,1.0,3.0,80,0.00,CLR,,0.05,WeatherDisplay:10.37,2013-08-28 13:00:00,
2013-08-28 07:15:00,81.8,75.7,29.94,North,354,2.0,7.0,82,0.00,CLR,,0.05,WeatherDisplay:10.37,2013-08-28 13:15:00,
2013-08-28 07:30:00,82.3,75.5,29.94,North,358,5.0,7.0,80,0.00,CLR,,0.05,WeatherDisplay:10.37,2013-08-28 13:30:00,
2013-08-28 07:45:00,83.5,76.3,29.95,NNE,25,1.0,5.0,79,0.00,CLR,,0.05,WeatherDisplay:10.37,2013-08-28 13:45:00,
2013-08-28 08:00:00,83.2,76.0,29.96,NNE,21,0.0,5.0,79,0.00,CLR,,0.05,WeatherDisplay:10.37,2013-08-28 14:00:00,
2013-08-28 08:15:00,85.0,77.0,29.97,NE,54,1.0,3.0,77,0.00,CLR,,0.05,WeatherDisplay:10.37,2013-08-28 14:15:00,
2013-08-28 08:30:00,86.0,76.8,29.97,NE,46,2.0,7.0,74,0.00,CLR,,0.05,WeatherDisplay:10.37,2013-08-28 14:30:00,
2013-08-28 08:45:00,87.0,76.9,29.97,East,85,1.0,7.0,72,0.00,CLR,,0.05,WeatherDisplay:10.37,2013-08-28 14:45:00,
2013-08-28 09:00:00,87.5,77.4,29.97,East,79,1.0,6.0,72,0.00,CLR,,0.05,WeatherDisplay:10.37,2013-08-28 15:00:00,
2013-08-28 09:15:00,87.9,77.7,29.97,ENE,75,2.0,6.0,72,0.00,CLR,,0.05,WeatherDisplay:10.37,2013-08-28 15:15:00,
2013-08-28 09:30:00,87.7,77.1,29.97,East,87,2.0,8.0,71,0.00,CLR,,0.05,WeatherDisplay:10.37,2013-08-28 15:30:00,
2013-08-28 09:45:00,88.1,77.1,29.97,East,87,3.0,7.0,70,0.00,CLR,,0.05,WeatherDisplay:10.37,2013-08-28 15:45:00,
2013-08-28 10:00:00,88.7,76.4,29.97,ENE,76,2.0,5.0,67,0.00,CLR,,0.05,WeatherDisplay:10.37,2013-08-28 16:00:00,
2013-08-28 10:15:00,88.4,76.0,29.97,East,86,2.0,3.0,67,0.00,CLR,,0.05,WeatherDisplay:10.37,2013-08-28 16:15:00,
2013-08-28 10:30:00,87.6,76.1,29.98,ESE,109,2.0,5.0,69,0.00,CLR,,0.05,WeatherDisplay:10.37,2013-08-28 16:30:00,
2013-08-28 10:45:00,87.9,76.4,29.98,East,93,2.0,5.0,69,0.00,CLR,,0.05,WeatherDisplay:10.37,2013-08-28 16:45:00,
2013-08-28 11:00:00,88.0,76.5,29.98,East,96,3.0,6.0,69,0.00,CLR,,0.05,WeatherDisplay:10.37,2013-08-28 17:00:00,
2013-08-28 11:15:00,87.5,76.5,29.97,East,94,1.0,6.0,70,0.00,CLR,,0.05,WeatherDisplay:10.37,2013-08-28 17:15:00,
2013-08-28 11:30:00,86.7,76.6,29.97,ENE,66,1.0,3.0,72,0.00,CLR,,0.05,WeatherDisplay:10.37,2013-08-28 17:30:00,
2013-08-28 11:45:00,86.6,76.9,29.97,East,96,1.0,3.0,73,0.00,CLR,,0.05,WeatherDisplay:10.37,2013-08-28 17:45:00,
2013-08-28 12:00:00,86.7,76.6,29.97,East,82,2.0,6.0,72,0.00,CLR,,0.05,WeatherDisplay:10.37,2013-08-28 18:00:00,
2013-08-28 12:15:00,87.3,77.1,29.97,East,88,2.0,6.0,72,0.00,CLR,,0.05,WeatherDisplay:10.37,2013-08-28 18:15:00,
2013-08-28 12:30:00,87.7,77.1,29.96,East,89,3.0,7.0,71,0.00,CLR,,0.05,WeatherDisplay:10.37,2013-08-28 18:30:00,
2013-08-28 12:45:00,86.8,76.7,29.96,East,90,3.0,6.0,72,0.00,CLR,,0.05,WeatherDisplay:10.37,2013-08-28 18:45:00,
2013-08-28 13:00:00,85.8,77.0,29.95,ESE,102,2.0,7.0,75,0.00,CLR,,0.05,WeatherDisplay:10.37,2013-08-28 19:00:00,
2013-08-28 13:15:00,86.8,78.3,29.94,East,95,3.0,8.0,76,0.00,CLR,,0.05,WeatherDisplay:10.37,2013-08-28 19:15:00,
2013-08-28 13:30:00,86.3,77.5,29.93,East,87,5.0,8.0,75,0.00,CLR,,0.05,WeatherDisplay:10.37,2013-08-28 19:30:00,
2013-08-28 13:45:00,85.9,78.3,29.92,East,84,5.0,9.0,78,0.00,CLR,,0.05,WeatherDisplay:10.37,2013-08-28 19:45:00,
2013-08-28 14:00:00,85.8,78.2,29.92,East,87,8.0,12.0,78,0.00,CLR,,0.05,WeatherDisplay:10.37,2013-08-28 20:00:00,
2013-08-28 14:15:00,86.4,79.1,29.92,East,82,6.0,10.0,79,0.00,CLR,,0.05,WeatherDisplay:10.37,2013-08-28 20:15:00,
2013-08-28 14:30:00,87.1,79.0,29.91,East,83,7.0,12.0,77,0.00,CLR,,0.05,WeatherDisplay:10.37,2013-08-28 20:30:00,
2013-08-28 14:45:00,86.8,79.1,29.90,East,82,5.0,12.0,78,0.00,CLR,,0.05,WeatherDisplay:10.37,2013-08-28 20:45:00,
2013-08-28 15:00:00,87.0,79.3,29.90,ENE,76,6.0,12.0,78,0.00,CLR,,0.05,WeatherDisplay:10.37,2013-08-28 21:00:00,
2013-08-28 15:15:00,85.7,78.8,29.90,East,80,8.0,12.0,80,0.00,CLR,,0.05,WeatherDisplay:10.37,2013-08-28 21:15:00,
2013-08-28 15:30:00,86.3,79.4,29.90,East,90,6.0,12.0,80,0.00,CLR,,0.05,WeatherDisplay:10.37,2013-08-28 21:30:00,
2013-08-28 15:45:00,85.5,78.6,29.90,East,88,7.0,10.0,80,0.00,CLR,,0.05,WeatherDisplay:10.37,2013-08-28 21:45:00,
2013-08-28 16:00:00,85.5,78.6,29.90,East,87,6.0,12.0,80,0.00,CLR,,0.05,WeatherDisplay:10.37,2013-08-28 22:00:00,
2013-08-28 16:15:00,84.9,78.7,29.91,East,83,6.0,13.0,82,0.00,CLR,,0.05,WeatherDisplay:10.37,2013-08-28 22:15:00,
2013-08-28 16:26:00,84.7,79.0,29.92,East,89,8.0,10.0,83,0.00,CLR,,0.05,WeatherDisplay:10.37,2013-08-28 22:26:00,
2013-08-28 16:45:00,84.8,78.7,29.91,ENE,74,3.0,10.0,82,0.00,CLR,,0.05,WeatherDisplay:10.37,2013-08-28 22:45:00,
2013-08-28 17:00:00,84.6,78.2,29.92,East,88,6.0,12.0,81,0.00,CLR,,0.05,WeatherDisplay:10.37,2013-08-28 23:00:00,
2013-08-28 17:15:00,84.6,77.7,29.92,East,96,10.0,13.0,80,0.00,CLR,,0.05,WeatherDisplay:10.37,2013-08-28 23:15:00,
2013-08-28 17:30:00,84.6,78.1,29.93,East,84,7.0,12.0,81,0.00,CLR,,0.05,WeatherDisplay:10.37,2013-08-28 23:30:00,
2013-08-28 17:45:00,84.4,78.3,29.93,East,82,9.0,13.0,82,0.00,CLR,,0.05,WeatherDisplay:10.37,2013-08-28 23:45:00,
2013-08-28 18:00:00,81.7,74.6,29.94,ENE,62,12.0,21.0,79,0.00,CLR,,0.05,WeatherDisplay:10.37,2013-08-29 00:00:00,
2013-08-28 18:15:00,78.6,73.7,29.92,East,100,2.0,20.0,85,0.17,RA,,0.22,WeatherDisplay:10.37,2013-08-29 00:15:00,
2013-08-28 18:30:00,78.5,75.3,29.93,NNE,16,6.0,8.0,90,0.00,CLR,,0.22,WeatherDisplay:10.37,2013-08-29 00:30:00,
2013-08-28 18:45:00,78.9,75.7,29.94,North,11,5.0,8.0,90,0.00,CLR,,0.22,WeatherDisplay:10.37,2013-08-29 00:45:00,
2013-08-28 19:00:00,80.3,77.4,29.94,NE,47,5.0,12.0,91,0.00,CLR,,0.22,WeatherDisplay:10.37,2013-08-29 01:00:00,
2013-08-28 19:15:00,81.9,78.0,29.95,NE,49,9.0,14.0,88,0.00,CLR,,0.22,WeatherDisplay:10.37,2013-08-29 01:15:00,
2013-08-28 19:30:00,82.6,78.3,29.95,ENE,60,6.0,13.0,87,0.00,CLR,,0.22,WeatherDisplay:10.37,2013-08-29 01:30:00,
2013-08-28 19:45:00,82.9,78.3,29.96,ENE,66,6.0,15.0,86,0.00,CLR,,0.22,WeatherDisplay:10.37,2013-08-29 01:45:00,
2013-08-28 20:00:00,83.0,78.4,29.95,ENE,65,6.0,13.0,86,0.00,CLR,,0.22,WeatherDisplay:10.37,2013-08-29 02:00:00,
2013-08-28 20:15:00,83.1,77.4,29.97,ENE,77,7.0,15.0,83,0.00,CLR,,0.22,WeatherDisplay:10.37,2013-08-29 02:15:00,
2013-08-28 20:30:00,83.5,77.8,29.98,ENE,74,12.0,18.0,83,0.00,CLR,,0.22,WeatherDisplay:10.37,2013-08-29 02:30:00,
2013-08-28 20:45:00,81.4,76.4,29.98,ESE,110,15.0,28.0,85,0.00,CLR,,0.22,WeatherDisplay:10.37,2013-08-29 02:45:00,
2013-08-28 21:00:00,81.5,76.9,29.99,ESE,105,18.0,24.0,86,0.00,CLR,,0.22,WeatherDisplay:10.37,2013-08-29 03:00:00,
2013-08-28 21:15:00,81.4,77.5,29.99,ESE,116,21.0,28.0,88,0.00,CLR,,0.22,WeatherDisplay:10.37,2013-08-29 03:15:00,
2013-08-28 21:30:00,81.3,77.0,30.00,ESE,115,24.0,28.0,87,0.00,CLR,,0.22,WeatherDisplay:10.37,2013-08-29 03:30:00,
2013-08-28 21:45:00,80.5,75.9,30.00,ESE,117,23.0,28.0,86,0.00,CLR,,0.22,WeatherDisplay:10.37,2013-08-29 03:45:00,
2013-08-28 22:00:00,79.9,76.3,30.01,ESE,123,17.0,24.0,89,0.00,CLR,,0.22,WeatherDisplay:10.37,2013-08-29 04:00:00,
2013-08-28 22:15:00,79.5,76.3,30.02,ESE,120,15.0,20.0,90,0.02,RA,,0.24,WeatherDisplay:10.37,2013-08-29 04:15:00,
2013-08-28 22:30:00,79.1,75.5,30.02,ESE,116,10.0,18.0,89,0.02,RA,,0.26,WeatherDisplay:10.37,2013-08-29 04:30:00,
2013-08-28 22:45:00,78.9,74.7,30.01,ESE,113,6.0,13.0,87,0.01,RA,,0.27,WeatherDisplay:10.37,2013-08-29 04:45:00,
2013-08-28 23:00:00,78.9,75.1,30.01,SE,125,5.0,9.0,88,0.00,CLR,,0.28,WeatherDisplay:10.37,2013-08-29 05:00:00,
2013-08-28 23:15:00,78.9,74.7,30.00,ESE,118,2.0,6.0,87,0.01,CLR,,0.28,WeatherDisplay:10.37,2013-08-29 05:15:00,
2013-08-28 23:30:00,79.1,75.2,30.00,SSE,147,1.0,5.0,88,0.00,CLR,,0.28,WeatherDisplay:10.37,2013-08-29 05:30:00,
2013-08-28 23:45:00,79.2,75.4,29.99,SE,144,3.0,8.0,88,0.00,CLR,,0.28,WeatherDisplay:10.37,2013-08-29 05:45:00,